Lexington Weather

Lexington, Massachusetts, USA

39°F
3/30/2020 8:27am 
  • Lexington Conditions: Mist, Overcast
  • Temperature: 39.4°F / 4.1°C 
  • Dew Point: 38.7°F 
  • Relative Humidity: 97
  • Wind: Wind from NNW NNW 2 mph, 10-min avg: 3 mph, gust: 7 mph
  • Barometer: 29.96 in Steady
  • Visibility: 2 miles
  • Rain Today: 0.02 in
  •   

Regional Weather Roundup
for Boston / Norton, MA

        
000
ASUS41 KBOX 282105
RWRBOX

REGIONAL WEATHER ROUNDUP
NATIONAL WEATHER SERVICE BOSTON/NORTON MA
500 PM EDT SAT MAR 28 2020

NOTE:  "FAIR" INDICATES FEW OR NO CLOUDS BELOW 12,000 FEET WITH NO 
SIGNIFICANT WEATHER AND/OR OBSTRUCTIONS TO VISIBILITY.

MAZALL-282200-
EASTERN MASSACHUSETTS
  
CITY           SKY/WX    TMP DP  RH WIND       PRES   REMARKS
BOSTON         CLOUDY    46  38  73 NE6       30.14R                  
BEVERLY        CLOUDY    48  33  56 SE9       30.15R                  
LAWRENCE       CLOUDY    50  29  44 SE9       30.15R                  
BEDFORD        CLOUDY    53  30  41 E9        30.12R                  
BLUE HILL        N/A     52  27  38 S13G21    30.11R                  
NORWOOD        CLOUDY    55  28  35 S12       30.13R                  
MARSHFIELD     FAIR      54  30  40 S7G13     30.16R                  
PLYMOUTH       CLOUDY    49  29  46 S6        30.17R                  
TAUNTON        CLOUDY    50  27  40 S8        30.16R                  
NEW BEDFORD    CLOUDY    49  30  48 SE10      30.15R                  
$$

MAZALL-282200-
CAPE COD AND THE ISLANDS
  
CITY           SKY/WX    TMP DP  RH WIND       PRES   REMARKS
FALMOUTH       PTSUNNY   46  30  53 S8        30.16R                  
HYANNIS        PTSUNNY   49  34  56 S5        30.16R                  
CHATHAM        FAIR      45  36  70 CALM      30.18S                  
PROVINCETOWN   PTSUNNY   47  31  53 S8        30.19R                  
NANTUCKET      PTSUNNY   46  38  73 SE10      30.16F                  
MARTHAS VNYRD  CLOUDY    47  36  65 SE12      30.15F                  
$$
 
MAZALL-282200-
CENTRAL AND WESTERN MASSACHUSETTS
  
CITY           SKY/WX    TMP DP  RH WIND       PRES   REMARKS
WORCESTER      CLOUDY    50  23  34 S7        30.10F                  
FITCHBURG      CLOUDY    54  21  27 SE7       30.12S                  
ORANGE         CLOUDY    53  20  27 SE5       30.10F                  
SPRINGFIELD    LGT RAIN  49  28  44 CALM      30.10F                  
WESTFIELD      LGT RAIN  46  33  60 S3        30.10F                  
NORTH ADAMS    LGT RAIN  47  32  56 E3        30.08F                  
PITTSFIELD     LGT RAIN  42  35  76 VRB3      30.07S                  
$$
 
RIZALL-282200-
RHODE ISLAND
  
CITY           SKY/WX    TMP DP  RH WIND       PRES   REMARKS
PROVIDENCE     LGT RAIN  49  33  54 S6        30.15S                  
NEWPORT        CLOUDY    47  35  63 SE7       30.14R                  
BLOCK ISLAND   LGT RAIN  45  41  86 CALM      30.13F                  
SMITHFIELD     CLOUDY    49  28  44 VRB5      30.14S                  
WESTERLY       LGT RAIN  48  39  71 NE8       30.13F                  
$$
 
CTZALL-282200-
CONNECTICUT
  
CITY           SKY/WX    TMP DP  RH WIND       PRES   REMARKS
BRADLEY INTL   LGT RAIN  48  29  47 CALM      30.11F                  
HARTFORD       CLOUDY    49  36  61 E3        30.11F                  
BRIDGEPORT     LGT RAIN  45  39  79 NE14      30.09S                  
DANBURY        LGT RAIN  43  37  79 NE5       30.09F                  
GROTON         LGT RAIN  46  42  86 E9        30.10F                  
NEW HAVEN      CLOUDY    47  40  76 E5        30.09S                  
CHESTER        CLOUDY    46  41  81 E6        30.07F                  
MERIDEN        CLOUDY    48  34  58 N3        30.09F                  
WILLIMANTIC    LGT RAIN  48  35  60 CALM      30.12S                  
OXFORD         LGT RAIN  44  36  73 E5        30.08F                  
$$

MEZ002-015-021-024-NHZ003-005-008-011-012-014-VTZ005-008-282200-
NORTHERN NEW ENGLAND
  
CITY           SKY/WX    TMP DP  RH WIND       PRES   REMARKS
PORTLAND ME    CLOUDY    47  28  47 S13       30.15F                  
BANGOR ME      PTSUNNY   53   9  17 W6        30.12F                  
CONCORD NH     FAIR      53  16  23 SE7       30.11F                  
MANCHESTER NH  CLOUDY    55  17  22 S6        30.11R                  
NASHUA NH      PTSUNNY   56  20  24 SE6       30.12F                  
PORTSMOUTH NH  CLOUDY    46  29  53 SE12      30.13S                  
JAFFREY NH     PTSUNNY   52  23  32 S8        30.09F                  
KEENE NH       FAIR      52  22  30 SW5       30.10F                  
BURLINGTON VT  PTSUNNY   53  20  27 S12       30.06F                  
MT. WASHINGTON NOT AVBL                                               
$$

NYZ052-076-282200-
EASTERN NEW YORK
  
CITY           SKY/WX    TMP DP  RH WIND       PRES   REMARKS
ALBANY         LGT RAIN  44  36  73 S8        30.10R                  
NEW YORK CITY  CLOUDY    45  41  86 NE12      30.04F                  
$$
 
ANZALL-282200-
MARINE OBSERVATIONS
  
STATION/POSITION TIME  TEMP    WIND        PRES    VSBY  WAVE
                       AIR SEA DIR/SP/G                  HT/PER
                 (UTC) (F)     (DEG/KT/KT) (MB)    (MI)  (FT/S)
BOSTON BUOY      2050   45 43  150/ 14/ 17 1020.4R         2/11
BUZZARDS BAY     2000          130/ 15/ 16 1021.4F
NANTUCKET SOUND  2040                        N/A           1
MASS BAY-STELLWA 2004   44 41  150/ 12/ 14 1018.8F  1 7/8
ISLE OF SHOALS   2000   43     140/ 14/ 15 1020.5F
S OF BLOCK IS    2030      44                N/A           3/ 8
$$

......................KEY.........................
  SKY/WX - SKY CONDITION/PRESENT WEATHER
  TMP    - TEMPERATURE IN FAHRENHEIT
  DWPT   - DEWPOINT IN FAHRENHEIT
  RH     - RELATIVE HUMIDITY IN PERCENT
  WIND   - DIRECTION AND SPEED IN MPH
  PRES   - MEAN SEA LEVEL PRESSURE IN INCHES OF HG
  WCI    - WIND CHILL INDEX
  VSB    - VISIBILITY IN MILES
  HX     - HEAT INDEX
  TC     - TEMPERATURE IN CELSIUS
  VRB    - VARIABLE WIND DIRECTION
  N/A    - NOT AVAILABLE
  
      

Other recent Regional Weather Roundups

Mon Mar 30, 8:04am

Mon Mar 30, 7:04am

Mon Mar 30, 6:04am

Mon Mar 30, 5:04am

Mon Mar 30, 4:04am

Mon Mar 30, 3:05am

Mon Mar 30, 2:04am

Mon Mar 30, 1:04am

Mon Mar 30, 12:04am

Sun Mar 29, 11:04pm

Sun Mar 29, 10:05pm

Sun Mar 29, 9:04pm

Sun Mar 29, 8:04pm

Sun Mar 29, 7:04pm

Sun Mar 29, 6:04pm

Sun Mar 29, 5:05pm

Sun Mar 29, 4:04pm

Sun Mar 29, 3:04pm

Sun Mar 29, 2:04pm

Sun Mar 29, 1:05pm

Sun Mar 29, 12:04pm

Sun Mar 29, 11:04am

Sun Mar 29, 10:04am

Sun Mar 29, 9:04am

Sun Mar 29, 8:04am

Sun Mar 29, 7:04am

Sun Mar 29, 6:04am

Sun Mar 29, 5:04am

Sun Mar 29, 4:04am

Sun Mar 29, 3:04am

Sun Mar 29, 2:04am

Sun Mar 29, 1:04am

Sun Mar 29, 12:04am

Sat Mar 28, 11:05pm

Sat Mar 28, 10:04pm

Sat Mar 28, 9:04pm

Sat Mar 28, 8:04pm

Sat Mar 28, 7:04pm

Sat Mar 28, 6:04pm

Sat Mar 28, 4:04pm

Sat Mar 28, 3:04pm

Sat Mar 28, 2:04pm

Sat Mar 28, 1:05pm

Sat Mar 28, 12:04pm

Sat Mar 28, 11:04am

Sat Mar 28, 10:04am

Sat Mar 28, 9:04am

Sat Mar 28, 8:04am

Sat Mar 28, 7:04am

Sat Mar 28, 6:04am

Sat Mar 28, 5:04am

Sat Mar 28, 4:04am

Sat Mar 28, 3:04am

Sat Mar 28, 2:04am

Sat Mar 28, 1:04am

Sat Mar 28, 12:04am

Fri Mar 27, 11:04pm

Fri Mar 27, 10:04pm

Fri Mar 27, 9:04pm

Fri Mar 27, 8:04pm

Fri Mar 27, 7:05pm

Fri Mar 27, 6:04pm

Fri Mar 27, 5:05pm

Fri Mar 27, 4:05pm

Fri Mar 27, 3:04pm

Fri Mar 27, 2:05pm

Fri Mar 27, 1:04pm

Fri Mar 27, 12:04pm

Fri Mar 27, 11:04am

Fri Mar 27, 10:04am

Fri Mar 27, 9:04am

Meta data:

ID: 956dd835-f423-481e-9fde-6559b37d6148
Link: https://api.weather.gov/products/956dd835-f423-481e-9fde-6559b37d6148